Location: Unspecified
(0.0000°N, 0.0000°E)
Time: 17:28:39
(UTC+00:00)

Amateur Radio Satellites - All Passes

Search period start: 24 January 2017 16:58
Search period end: 25 January 2017 16:58
Location: Unspecified, 0.0000°N, 0.0000°E

Satellite Date Start Highest point End Downlink Frequencies (MHz)
Time Altitude Azimuth
Cubesat XI-IV 24 Jan 16:59:06 17:02:02 15° 77° (ENE) 17:04:57 437.490
LilacSat-2 24 Jan 16:59:36 17:01:07 12° 79° (ENE) 17:02:36 437.200
KKS-1 24 Jan 17:12:48 17:13:28 10° 282° (WNW) 17:14:07 437.445
Cosmos 2499 24 Jan 17:19:25 17:23:33 14° 95° (E) 17:27:35 435.465 / 435.565
GONETS M04 24 Jan 17:37:18 17:41:30 14° 93° (E) 17:45:40
SO-50 24 Jan 17:37:23 17:41:37 43° 248° (WSW) 17:45:52 436.795
NOAA 18 24 Jan 17:38:17 17:42:24 22° 77° (ENE) 17:46:29 137.9125
GOMX 1 24 Jan 17:39:56 17:45:14 50° 258° (WSW) 17:50:27 467.674
CUTE-I 24 Jan 17:51:53 17:57:12 71° 77° (ENE) 18:02:28 437.470
DOVE 4 24 Jan 17:56:30 18:01:46 89° 84° (E) 18:06:46 437.250
BRITE-PL 24 Jan 18:03:02 18:03:55 10° 258° (WSW) 18:04:47 437.365/2234.400
SRMSAT 24 Jan 18:06:22 18:09:12 13° 10° (N) 18:12:02 437.500
JUGNU 24 Jan 18:15:56 18:21:32 43° 20° (NNE) 18:27:11 437.505
STRAND 1 24 Jan 18:17:59 18:22:04 24° 103° (ESE) 18:26:10 437.568
HO-68 24 Jan 18:19:14 18:24:30 22° 75° (ENE) 18:29:44 435.675
NOAA 15 24 Jan 18:29:40 18:34:31 39° 257° (WSW) 18:39:25 137.62
ISS 24 Jan 18:30:07 18:32:46 23° 305° (NW) 18:35:24 145.825
LilacSat-2 24 Jan 18:32:27 18:35:08 19° 259° (WSW) 18:37:49 437.200
Cubesat XI-IV 24 Jan 18:37:02 18:41:50 34° 257° (WSW) 18:46:36 437.490
CINEMA 3 24 Jan 18:53:07 18:57:48 80° 79° (E) 19:02:14 145.822/145.860
CUTE 1.7 + AOD 2 24 Jan 18:56:05 18:59:59 37° 79° (ENE) 19:03:53 437.475
Cosmos 2499 24 Jan 19:07:44 19:16:29 67° 273° (W) 19:24:44 435.465 / 435.565
NOAA 18 24 Jan 19:18:13 19:22:46 27° 256° (WSW) 19:27:18 137.9125
CUBEBUG 2 24 Jan 19:18:26 19:21:55 24° 79° (E) 19:25:19 437.445
COMPASS 1 24 Jan 19:24:25 19:28:10 32° 79° (ENE) 19:31:54 437.405
CANX-2 24 Jan 19:26:00 19:30:10 60° 258° (WSW) 19:34:20 2200.000
SEEDS 24 Jan 19:27:25 19:31:35 66° 78° (ENE) 19:35:45 437.485
GONETS M04 24 Jan 19:29:22 19:37:55 64° 273° (W) 19:46:29
AAUSAT CUBESAT 2 24 Jan 19:31:08 19:34:43 28° 78° (ENE) 19:38:18 437.432
UWE-3 24 Jan 19:37:12 19:40:38 24° 79° (E) 19:43:59 435.000/436.395/437.385
ZACube-1 24 Jan 19:46:18 19:48:55 16° 79° (ENE) 19:51:31 437.345
SRMSAT 24 Jan 19:54:00 19:59:02 27° 18° (NNE) 20:04:05 437.500
STRAND 1 24 Jan 19:57:13 20:00:57 21° 283° (WNW) 20:04:44 437.568
JUGNU 24 Jan 20:04:40 20:10:37 70° 201° (SSW) 20:16:36 437.505
PHONESAT 2.4 24 Jan 20:04:53 20:07:00 47° 318° (NW) 20:09:06 2401.200-2431.200
HO-68 24 Jan 20:05:15 20:11:53 41° 255° (WSW) 20:18:31 435.675
RS-15 24 Jan 20:11:35 20:20:44 29° 111° (ESE) 20:30:09 29.354- 29.394
Oscar 11 24 Jan 20:12:41 20:16:34 33° 78° (ENE) 20:20:25 145.826/435.025
HUMSAT D 24 Jan 20:52:58 20:54:44 13° 78° (ENE) 20:56:29 437.325/437.525
FUNcube-1 24 Jan 20:55:08 20:59:08 47° 258° (WSW) 21:03:06 145.935
CUBEBUG 2 24 Jan 20:56:29 20:58:15 12° 257° (WSW) 20:59:59 437.445
PRISM 24 Jan 21:09:16 21:13:18 71° 282° (WNW) 21:17:20 437.425
AAUSAT CUBESAT 2 24 Jan 21:09:27 21:09:54 10° 258° (WSW) 21:10:22 437.432
UWE-3 24 Jan 21:15:12 21:16:48 12° 258° (WSW) 21:18:23 435.000/436.395/437.385
UNISAT 6 24 Jan 21:21:43 21:25:57 36° 102° (ESE) 21:30:15 437.425
ZACube-1 24 Jan 21:22:07 21:24:56 18° 258° (WSW) 21:27:45 437.345
JAS-2 24 Jan 21:26:14 21:31:15 18° 103° (ESE) 21:36:10 435.910
TIGRISAT 24 Jan 21:33:21 21:37:48 48° 102° (ESE) 21:42:20 435.000
DELFI C3 24 Jan 21:42:03 21:45:51 43° 258° (WSW) 21:49:39 145.870
SRMSAT 24 Jan 21:42:25 21:48:24 72° 21° (NNE) 21:54:23 437.500
ANTELSAT 24 Jan 21:49:37 21:54:15 89° 102° (ESE) 21:58:58 437.575/2403.000
PCSat 24 Jan 21:50:39 21:55:42 40° 109° (ESE) 22:00:43 145.827
JUGNU 24 Jan 21:54:51 21:59:50 27° 198° (SSW) 22:04:51 437.505
RS-15 24 Jan 22:21:52 22:32:38 51° 291° (WNW) 22:43:59 29.354- 29.394
POPSAT HIP 1 24 Jan 22:23:16 22:23:22 10° 103° (ESE) 22:23:29 437.405
HUMSAT D 24 Jan 22:26:53 22:30:04 22° 258° (WSW) 22:33:16 437.325/437.525
NANOSAT C BR1 24 Jan 22:33:53 22:36:14 15° 102° (ESE) 22:38:35 145.865
BY70-1 24 Jan 22:42:32 22:45:09 76° 259° (W) 22:48:00 436.1900
VELOX 1 24 Jan 22:51:46 22:53:41 13° 78° (ENE) 22:55:34 145.980
ESTCUBE 1 24 Jan 22:58:20 23:02:49 64° 79° (E) 23:07:17 437.505/2401.250
UNISAT 6 24 Jan 23:01:30 23:02:24 10° 282° (WNW) 23:03:18 437.425
JAS-2 24 Jan 23:08:15 23:15:52 57° 283° (WNW) 23:23:23 435.910
AO-85 24 Jan 23:19:59 23:23:57 67° 248° (WSW) 23:28:14 145.980
CUBEBUG 1 24 Jan 23:23:20 23:27:46 73° 78° (ENE) 23:32:09 437.445
QB50P1 24 Jan 23:27:13 23:31:27 78° 282° (WNW) 23:35:43 145.935-145.965
SRMSAT 24 Jan 23:32:01 23:37:39 42° 200° (SSW) 23:43:16 437.500
POLYITAN 1 24 Jan 23:32:58 23:37:10 63° 282° (WNW) 23:41:25 437.675
QB50P2 24 Jan 23:34:27 23:38:35 54° 282° (WNW) 23:42:47 145.880/145.840
PCSat 24 Jan 23:36:30 23:38:50 13° 290° (WNW) 23:41:10 145.827
50 SAT 24 Jan 23:39:44 23:43:05 41° 79° (ENE) 23:46:27 437.505
JUGNU 24 Jan 23:46:46 23:49:33 13° 190° (S) 23:52:20 437.505
Cosmos 2491 24 Jan 23:49:41 23:54:00 15° 93° (E) 23:58:16 435.465 / 435.565
AISAT 24 Jan 23:52:20 23:56:49 78° 259° (WSW) 00:01:15 437.250
POPSAT HIP 1 24 Jan 23:55:06 23:58:50 31° 282° (WNW) 00:02:38 437.405
DUCHIFAT 1 24 Jan 23:59:49 00:03:34 31° 282° (WNW) 00:07:21 145.980
NANOSAT C BR1 25 Jan 00:08:25 00:11:40 22° 282° (WNW) 00:14:56 145.865
BUGSAT 1 25 Jan 00:14:26 00:18:31 75° 283° (WNW) 00:22:42 437.445
AIST 1 25 Jan 00:14:33 00:17:48 21° 87° (E) 00:21:04
SPROUT 25 Jan 00:18:37 00:22:45 48° 258° (WSW) 00:26:51 437.525
VELOX 1 25 Jan 00:26:02 00:29:51 28° 258° (WSW) 00:33:39 145.980
UKube-1 25 Jan 00:31:08 00:35:30 87° 74° (ENE) 00:39:48 .
Oscar 19 25 Jan 00:33:23 00:37:54 32° 103° (ESE) 00:42:24 437.125/150
DX 1 25 Jan 00:41:51 00:46:00 42° 258° (WSW) 00:50:08 434.975-435.025
BEESAT 3 25 Jan 01:00:02 01:03:29 29° 68° (ENE) 01:06:56 437.485
YUBILEINY 25 Jan 01:18:20 01:27:03 78° 87° (E) 01:35:46 435.215
SWISSCUBE 25 Jan 01:19:31 01:21:23 12° 77° (ENE) 01:23:14 437.505
SRMSAT 25 Jan 01:23:15 01:27:13 18° 194° (SSW) 01:31:11 437.500
Gurwin Techsat 1B 25 Jan 01:25:15 01:30:29 63° 102° (ESE) 01:35:45 435.225
Cosmos 2504 25 Jan 01:27:27 01:33:58 39° 87° (E) 01:40:42 435.465 / 435.565
TISAT 1 25 Jan 01:29:24 01:33:32 60° 258° (WSW) 01:37:39 437.305
Cosmos 2491 25 Jan 01:41:52 01:50:27 63° 273° (W) 01:59:00 435.465 / 435.565
AIST 1 25 Jan 01:53:10 01:55:06 13° 266° (W) 01:57:03
BEESAT 2 25 Jan 01:54:56 01:58:53 62° 68° (ENE) 02:02:49 435.950
Oscar 19 25 Jan 02:14:05 02:16:56 15° 283° (WNW) 02:19:48 437.125/150
AO-7 25 Jan 02:14:33 02:21:11 27° 107° (ESE) 02:27:46 29.400- 29.500
CUSAT 1 25 Jan 02:18:47 02:22:38 64° 277° (W) 02:27:43 437.405
ITUPSAT 1 25 Jan 02:20:42 02:25:27 73° 78° (ENE) 02:30:11 437.325
BEESAT 25 Jan 02:52:17 02:56:43 41° 257° (WSW) 03:01:10 436.000
SWISSCUBE 25 Jan 02:54:39 02:58:53 33° 257° (WSW) 03:03:08 437.505
ITAMSAT 1 25 Jan 03:05:22 03:10:32 64° 282° (WNW) 03:15:43 435.822/435.867
AUBIESAT-1 25 Jan 03:14:14 03:17:25 19° 75° (ENE) 03:20:28 437.475
SRMSAT 25 Jan 03:16:24 03:17:20 10° 185° (S) 03:18:17 437.500
YUBILEINY 25 Jan 03:22:09 03:23:27 10° 267° (W) 03:24:47 435.215
Cosmos 2504 25 Jan 03:22:13 03:27:02 19° 266° (W) 03:31:58 435.465 / 435.565
JUGNU 25 Jan 03:26:57 03:29:53 14° 169° (S) 03:32:48 437.505
MOZHAYETS 4 25 Jan 03:41:41 03:45:55 39° 258° (WSW) 03:50:09
KKS-1 25 Jan 03:45:22 03:49:42 49° 78° (ENE) 03:53:59 437.445
AO-7 25 Jan 04:05:58 04:13:34 41° 286° (WNW) 04:21:12 29.400- 29.500
SO-50 25 Jan 04:11:01 04:14:10 17° 113° (ESE) 04:17:18 436.795
M-CUBED/EXP-1 PRIME 25 Jan 04:14:48 04:19:12 44° 254° (WSW) 04:23:25 437.505
STARS 25 Jan 04:24:37 04:28:58 64° 78° (ENE) 04:33:18 437.465
GOMX 1 25 Jan 04:28:15 04:30:38 15° 102° (ESE) 04:33:02 467.674
AIST 2 25 Jan 04:36:30 04:40:40 63° 68° (ENE) 04:44:47 435.215
CUBESAT XI-V 25 Jan 04:40:18 04:44:57 73° 258° (WSW) 04:49:38 437.345
O/OREOS (USA 219) 25 Jan 04:47:10 04:51:17 35° 284° (WNW) 04:55:22 437.305
AUBIESAT-1 25 Jan 04:48:09 04:51:30 20° 253° (WSW) 04:54:45 437.475
BRITE-PL 25 Jan 04:48:24 04:52:36 67° 282° (WNW) 04:56:43 437.365/2234.400
CUTE-I 25 Jan 04:54:12 04:56:40 13° 103° (ESE) 04:59:07 437.470
LilacSat-2 25 Jan 04:54:52 04:55:28 10° 102° (ESE) 04:56:03 437.200
SRMSAT 25 Jan 05:06:27 05:07:44 11° 174° (S) 05:09:02 437.500
HORYU 2 25 Jan 05:06:55 05:11:23 73° 102° (ESE) 05:15:52 437.375
JUGNU 25 Jan 05:14:29 05:19:32 28° 162° (SSE) 05:24:32 437.505
NOAA 15 25 Jan 05:27:32 05:32:21 37° 103° (ESE) 05:37:10 137.62
Cosmos 2499 25 Jan 05:28:41 05:32:25 15° 88° (E) 05:36:14 435.465 / 435.565
Cubesat XI-IV 25 Jan 05:36:20 05:41:25 44° 103° (ESE) 05:46:32 437.490
SO-50 25 Jan 05:50:29 05:54:24 25° 292° (WNW) 05:58:17 436.795
ISS 25 Jan 06:03:33 06:06:35 37° 234° (SW) 06:09:38 145.825
GOMX 1 25 Jan 06:05:33 06:08:29 19° 281° (W) 06:11:27 467.674
GONETS M04 25 Jan 06:07:32 06:15:07 32° 87° (E) 06:22:39
HO-68 25 Jan 06:11:32 06:16:03 18° 105° (ESE) 06:20:33 435.675
DOVE 4 25 Jan 06:17:32 06:21:33 45° 281° (WNW) 06:25:47 437.250
NOAA 18 25 Jan 06:21:13 06:26:38 70° 103° (ESE) 06:32:07 137.9125
LilacSat-2 25 Jan 06:26:19 06:29:28 24° 281° (W) 06:32:37 437.200
CUTE-I 25 Jan 06:31:26 06:36:23 39° 283° (WNW) 06:41:23 437.470
STRAND 1 25 Jan 06:49:42 06:54:42 60° 78° (ENE) 06:59:43 437.568
SRMSAT 25 Jan 06:53:40 06:57:48 19° 165° (SSE) 07:01:56 437.500
CUTE 1.7 + AOD 2 25 Jan 07:02:11 07:06:16 46° 101° (ESE) 07:10:21 437.475
JUGNU 25 Jan 07:02:47 07:08:42 76° 158° (SSE) 07:14:33 437.505
CINEMA 3 25 Jan 07:08:51 07:13:16 62° 281° (WNW) 07:17:56 145.822/145.860
NOAA 15 25 Jan 07:09:15 07:11:50 14° 283° (WNW) 07:14:26 137.62
PHONESAT 2.4 25 Jan 07:12:16 07:14:09 24° 43° (NE) 07:16:02 2401.200-2431.200
Cosmos 2499 25 Jan 07:18:14 07:25:03 50° 266° (W) 07:32:18 435.465 / 435.565
Cubesat XI-IV 25 Jan 07:19:29 07:21:12 11° 283° (WNW) 07:22:56 437.490
COMPASS 1 25 Jan 07:28:23 07:32:13 37° 101° (ESE) 07:36:03 437.405
CUBEBUG 2 25 Jan 07:29:32 07:33:51 40° 102° (ESE) 07:38:15 437.445
CANX-2 25 Jan 07:32:29 07:36:35 48° 281° (WNW) 07:40:41 2200.000
SEEDS 25 Jan 07:32:34 07:36:46 79° 102° (ESE) 07:40:58 437.485
AAUSAT CUBESAT 2 25 Jan 07:34:30 07:38:11 31° 102° (ESE) 07:41:51 437.432
UWE-3 25 Jan 07:47:10 07:51:27 38° 102° (ESE) 07:55:46 435.000/436.395/437.385
ZACube-1 25 Jan 07:54:47 07:58:32 25° 102° (ESE) 08:02:17 437.345
RS-15 25 Jan 07:54:54 08:03:48 24° 67° (ENE) 08:12:19 29.354- 29.394
HO-68 25 Jan 07:56:37 08:03:25 48° 284° (WNW) 08:10:14 435.675
GONETS M04 25 Jan 08:03:55 08:11:31 33° 267° (W) 08:19:08
Oscar 11 25 Jan 08:21:02 08:25:11 45° 101° (ESE) 08:29:20 145.826/435.025
SRMSAT 25 Jan 08:41:40 08:47:19 46° 160° (SSE) 08:52:58 437.500
JUGNU 25 Jan 08:52:18 08:57:44 39° 340° (NNW) 09:03:10 437.505
HUMSAT D 25 Jan 08:56:45 08:59:22 16° 102° (ESE) 09:01:59 437.325/437.525
FUNcube-1 25 Jan 09:04:11 09:08:22 37° 281° (WNW) 09:12:36 145.935
PRISM 25 Jan 09:11:49 09:15:57 65° 258° (WSW) 09:20:05 437.425
ZACube-1 25 Jan 09:31:56 09:34:32 15° 281° (WNW) 09:37:08 437.345
UNISAT 6 25 Jan 09:35:11 09:39:24 53° 79° (ENE) 09:43:33 437.425
DELFI C3 25 Jan 09:40:29 09:44:14 45° 281° (WNW) 09:48:01 145.870
TIGRISAT 25 Jan 09:46:47 09:51:05 73° 78° (ENE) 09:55:19 435.000
AO-85 25 Jan 09:54:43 09:57:09 13° 114° (ESE) 09:59:33 145.980
ANTELSAT 25 Jan 10:03:26 10:07:41 57° 258° (WSW) 10:11:51 437.575/2403.000
RS-15 25 Jan 10:04:26 10:15:56 59° 250° (WSW) 10:26:55 29.354- 29.394
BY70-1 25 Jan 10:08:00 10:09:25 14° 99° (E) 10:10:46 436.1900
PCSat 25 Jan 10:26:28 10:31:48 64° 251° (WSW) 10:37:09 145.827
POPSAT HIP 1 25 Jan 10:27:52 10:29:33 12° 78° (ENE) 10:31:14 437.405
SRMSAT 25 Jan 10:30:39 10:36:32 65° 339° (NNW) 10:42:26 437.500
HUMSAT D 25 Jan 10:31:31 10:34:42 20° 282° (WNW) 10:37:53 437.325/437.525
DUCHIFAT 1 25 Jan 10:32:16 10:33:38 11° 78° (ENE) 10:34:58 145.980
NANOSAT C BR1 25 Jan 10:39:14 10:42:00 17° 78° (ENE) 10:44:44 145.865
JAS-2 25 Jan 10:42:53 10:48:04 85° 78° (ENE) 10:53:24 435.910
JUGNU 25 Jan 10:43:29 10:47:09 17° 346° (NNW) 10:50:49 437.505
VELOX 1 25 Jan 11:02:09 11:05:05 18° 103° (ESE) 11:08:02 145.980
ESTCUBE 1 25 Jan 11:12:21 11:16:50 81° 281° (W) 11:21:19 437.505/2401.250
DX 1 25 Jan 11:18:47 11:19:34 10° 103° (ESE) 11:20:22 434.975-435.025
50 SAT 25 Jan 11:26:32 11:29:22 23° 101° (ESE) 11:32:12 437.505
AO-85 25 Jan 11:32:41 11:37:29 38° 291° (WNW) 11:42:01 145.980
CUBEBUG 1 25 Jan 11:33:21 11:37:38 81° 283° (WNW) 11:41:58 437.445
QB50P1 25 Jan 11:33:27 11:37:37 62° 258° (WSW) 11:41:45 145.935-145.965
POLYITAN 1 25 Jan 11:39:27 11:43:31 49° 258° (WSW) 11:47:34 437.675
QB50P2 25 Jan 11:40:57 11:44:58 42° 258° (WSW) 11:48:56 145.880/145.840
YUBILEINY 25 Jan 11:58:55 12:04:07 17° 93° (E) 12:09:19 435.215
POPSAT HIP 1 25 Jan 12:01:37 12:05:04 25° 258° (WSW) 12:08:29 437.405
AISAT 25 Jan 12:04:00 12:08:14 52° 282° (WNW) 12:12:31 437.250
DUCHIFAT 1 25 Jan 12:05:33 12:09:02 26° 258° (WSW) 12:12:31 145.980
NANOSAT C BR1 25 Jan 12:14:36 12:17:26 18° 258° (WSW) 12:20:15 145.865
BUGSAT 1 25 Jan 12:17:41 12:21:48 67° 258° (WSW) 12:25:49 437.445
Cosmos 2491 25 Jan 12:20:04 12:27:39 32° 87° (E) 12:35:13 435.465 / 435.565
AIST 1 25 Jan 12:20:33 12:24:27 31° 94° (E) 12:28:19
SRMSAT 25 Jan 12:21:07 12:25:54 25° 343° (NNW) 12:30:43 437.500
SPROUT 25 Jan 12:25:50 12:29:48 38° 281° (WNW) 12:33:47 437.525
Gurwin Techsat 1B 25 Jan 12:27:56 12:29:23 11° 77° (ENE) 12:30:50 435.225
VELOX 1 25 Jan 12:38:09 12:41:16 19° 282° (WNW) 12:44:24 145.980
UKube-1 25 Jan 12:39:33 12:43:48 71° 282° (WNW) 12:48:06 .
DX 1 25 Jan 12:51:41 12:55:28 31° 282° (WNW) 12:59:18 434.975-435.025
BEESAT 3 25 Jan 12:52:01 12:55:20 28° 112° (ESE) 12:58:40 437.485
Oscar 19 25 Jan 13:06:23 13:11:36 84° 74° (ENE) 13:16:47 437.125/150
CUSAT 1 25 Jan 13:16:38 13:22:12 28° 80° (E) 13:26:47 437.405
TISAT 1 25 Jan 13:34:28 13:38:31 50° 282° (WNW) 13:42:37 437.305
Cosmos 2504 25 Jan 13:37:25 13:46:08 59° 93° (E) 13:54:32 435.465 / 435.565
BEESAT 25 Jan 13:37:36 13:41:00 20° 103° (ESE) 13:44:25 436.000
SWISSCUBE 25 Jan 13:39:24 13:43:14 24° 103° (ESE) 13:47:04 437.505
BEESAT 2 25 Jan 13:48:08 13:51:58 64° 111° (ESE) 13:55:49 435.950
YUBILEINY 25 Jan 13:51:58 14:00:31 57° 273° (W) 14:09:05 435.215
ITAMSAT 1 25 Jan 14:02:35 14:06:23 21° 77° (ENE) 14:10:10 435.822/435.867
Gurwin Techsat 1B 25 Jan 14:04:00 14:09:03 45° 257° (WSW) 14:14:05 435.225
SRMSAT 25 Jan 14:13:19 14:15:48 13° 351° (N) 14:18:16 437.500
Cosmos 2491 25 Jan 14:16:32 14:24:05 32° 267° (W) 14:31:41 435.465 / 435.565
MOZHAYETS 4 25 Jan 14:22:47 14:25:40 16° 102° (ESE) 14:28:32
JUGNU 25 Jan 14:26:02 14:27:18 11° 7° (N) 14:28:35 437.505
AO-7 25 Jan 14:39:43 14:47:31 44° 74° (ENE) 14:55:18 29.400- 29.500
ITUPSAT 1 25 Jan 14:42:57 14:47:38 57° 283° (WNW) 14:52:22 437.325
DANDE 25 Jan 14:57:59 15:06:13 90° 262° (W) 15:13:10 436.750
CUSAT 1 25 Jan 14:58:54 15:03:40 22° 270° (W) 15:07:44 437.405
AUBIESAT-1 25 Jan 15:14:08 15:15:31 12° 107° (ESE) 15:16:56 437.475
BEESAT 25 Jan 15:14:53 15:18:30 22° 283° (WNW) 15:22:08 436.000
SWISSCUBE 25 Jan 15:17:36 15:20:45 18° 282° (WNW) 15:23:53 437.505
O/OREOS (USA 219) 25 Jan 15:20:10 15:23:01 16° 76° (ENE) 15:25:54 437.305
Cosmos 2504 25 Jan 15:33:45 15:39:02 17° 272° (W) 15:44:15 435.465 / 435.565
BRITE-PL 25 Jan 15:37:11 15:40:43 17° 77° (ENE) 15:44:15 437.365/2234.400
ITAMSAT 1 25 Jan 15:41:29 15:45:34 24° 257° (WSW) 15:49:39 435.822/435.867
KKS-1 25 Jan 15:57:34 16:01:59 75° 103° (ESE) 16:06:25 437.445
MOZHAYETS 4 25 Jan 15:58:52 16:02:32 24° 282° (WNW) 16:06:14
JUGNU 25 Jan 16:12:58 16:17:10 20° 16° (NNE) 16:21:23 437.505
M-CUBED/EXP-1 PRIME 25 Jan 16:14:42 16:17:47 37° 285° (WNW) 16:21:02 437.505
SO-50 25 Jan 16:22:52 16:26:43 28° 68° (ENE) 16:30:34 436.795
AO-7 25 Jan 16:33:30 16:39:54 25° 253° (WSW) 16:46:19 29.400- 29.500
AIST 2 25 Jan 16:34:46 16:38:48 79° 112° (ESE) 16:42:51 435.215
STARS 25 Jan 16:35:14 16:39:37 89° 271° (W) 16:44:01 437.465
AUBIESAT-1 25 Jan 16:47:34 16:49:41 16° 284° (WNW) 16:51:52 437.475
